Regional Weather Roundup
Issued by NWS

Home | Current Version | Previous Version | Graphics & Text | Print | Product List | Glossary On
Versions: 1 2 3 4 5 6 7 8 9 10 11 12 13 14 15 16 17 18 19 20 21 22 23 24 25 26 27 28 29 30 31 32 33 34 35 36 37 38 39 40 41 42 43 44 45 46 47 48 49 50
542
ASUS44 KJAN 242310
RWRMS

MISSISSIPPI HOURLY WEATHER ROUNDUP
NATIONAL WEATHER SERVICE JACKSON MS
600 PM CDT THU APR 24 2014

NOTE: "FAIR: INDICATES FEW OR NO CLOUDS BELOW 12,000 FEET WITH NO
SIGNIFICANT WEATHER AND/OR OBSTRUCTIONS TO VISIBILITY.

MSZ001>002-007>008-010>013-018>021-025>028-034>036-250000-
NORTHWEST MISSISSIPPI

CITY           SKY/WX    TMP DP  RH WIND       PRES   REMARKS
CLARKSDALE       N/A     75  61  60 S24       29.69F
CLEVELAND      TSTM      73  65  78 S13       29.73F
GREENWOOD      PTSUNNY   77  57  50 S9        29.78R
GREENVILLE     TSTM      73  65  75 S8        29.74F
GRENADA        CLOUDY    77  55  47 S7        29.80R
OLIVE BRANCH   TSTM      75  55  50 S12       29.76R
OXFORD         FAIR      77  54  44 S8G17     29.81R
TUNICA         TSTM      72  59  64 S8        29.72F
$$

MSZ003>006-009-014>017-022>024-029>033-037>039-250000-
NORTHEAST MISSISSIPPI

CITY           SKY/WX    TMP DP  RH WIND       PRES   REMARKS
BELMONT        FAIR      79  56  44 S10G18    29.80F
COLUMBUS AFB   PTSUNNY   82  56  40 S12G21    29.80F
CORINTH        FAIR      81  52  36 S10G17    29.78R
GOLDN TRIANGLE MOSUNNY   81  57  44 S14       29.83F
STARKVILLE     FAIR      81  54  39 S13       29.80S
TUPELO         MOSUNNY   81  54  39 SW13G25   29.79S
$$

MSZ040-058-250000-
CENTRAL MISSISSIPPI

CITY           SKY/WX    TMP DP  RH WIND       PRES   REMARKS
JACKSON INTL   PTSUNNY   81  60  48 S13       29.83R
JACKSON HAWKNS PTSUNNY   81  59  47 S7G22     29.82F
MERIDIAN KEY   SUNNY     80  56  43 S13       29.83F
MERIDIAN NAS   PTSUNNY   81  58  45 S6        29.83F
RAYMOND        MOCLDY    79  73  83 S10G20    29.81S
VICKSBURG      MOSUNNY   81  64  56 S16G23    29.77F
$$

MSZ059>079-250000-
SOUTH MISSISSIPPI

CITY           SKY/WX    TMP DP  RH WIND       PRES   REMARKS
BROOKHAVEN     FAIR      81  64  57 S6G16     29.86S
HATTIESBURG    MOSUNNY   81  60  48 S12       29.85F
MCCOMB         PTSUNNY   80  64  58 S6        29.86R
NATCHEZ        MOSUNNY   79  64  61 S9        29.82F
PINE BELT      MOSUNNY   81  57  44 S10G16    29.85F
$$

MSZ080>082-250000-
COASTAL MISSISSIPPI

CITY           SKY/WX    TMP DP  RH WIND       PRES   REMARKS
BILOXI         SUNNY     74  65  73 S12       29.90F
PASCAGOULA     MOSUNNY   73  64  73 S12       29.91F
GULFPORT       MOSUNNY   76  65  68 S12       29.90F
$$



USA.gov is the U.S. government's official web portal to all federal, state and local government web resources and services.